EW9530 Weather Reports


Display with metric or nautical units.
time (UTC)temp
F
wind
direction
speed
MPH
gust
MPH
rain 1hr
in
rain 24hr
in
rain mn
in
humidity
%
barometer
mb
20260906160200 97 140 9.0 19.0 0.00 0.00 0.00 25 1019.5
20260906154653 97 135 9.0 18.0 0.00 0.00 0.00 29 1019.5
20260906153141 98 150 8.0 16.0 0.00 0.00 0.00 30 1019.5
20260906151651 98 121 10.0 16.0 0.00 0.00 0.00 31 1019.5
20260906150153 99 122 7.0 16.0 0.00 0.00 0.00 33 1019.5
20260906144652 98 102 3.0 12.0 0.00 0.00 0.00 35 1019.6
20260906143142 99 106 5.0 13.0 0.00 0.00 0.00 34 1019.7
20260906141654 98 89 9.0 15.0 0.00 0.00 0.00 33 1019.7
20260906140153 98 136 6.0 17.0 0.00 0.00 0.00 34 1019.8
20260906134653 98 121 8.0 15.0 0.00 0.00 0.00 33 1019.8
20260906133139 99 177 6.0 16.0 0.00 0.00 0.00 34 1019.9
20260906131652 99 54 4.0 15.0 0.00 0.00 0.00 34 1020.0
20260906130155 99 82 8.0 14.0 0.00 0.00 0.00 31 1020.1
20260906124654 99 149 4.0 14.0 0.00 0.00 0.00 29 1020.1
20260906123142 99 111 7.0 15.0 0.00 0.00 0.00 29 1020.2
20260906121650 99 194 6.0 14.0 0.00 0.00 0.00 29 1020.3
20260906120151 98 123 5.0 15.0 0.00 0.00 0.00 28 1020.5
20260906114651 99 165 7.0 14.0 0.00 0.00 0.00 26 1020.5
20260906113141 98 121 5.0 11.0 0.00 0.00 0.00 27 1020.7
20260906111653 98 191 5.0 9.0 0.00 0.00 0.00 27 1020.8
20260906110155 97 188 4.0 11.0 0.00 0.00 0.00 30 1021.0
20260906104653 96 140 4.0 11.0 0.00 0.00 0.00 31 1021.0
20260906103141 92 136 3.0 8.0 0.00 0.00 0.00 38 1021.3
20260906101652 90 224 3.0 5.0 0.00 0.00 0.00 42 1021.5
20260906100154 89 186 2.0 5.0 0.00 0.00 0.00 44 1021.6
20260906094652 86 115 1.0 6.0 0.00 0.00 0.00 46 1021.9
20260906093143 83 277 0.0 2.0 0.00 0.00 0.00 51 1022.1
20260906091653 82 26 0.0 1.0 0.00 0.00 0.00 52 1022.2
20260906090152 80 37 1.0 4.0 0.00 0.00 0.00 54 1022.4
20260906084652 78 28 1.0 5.0 0.00 0.00 0.00 58 1022.4
20260906083141 76 341 3.0 8.0 0.00 0.00 0.00 62 1022.4
20260906081654 75 50 3.0 6.0 0.00 0.00 0.00 64 1022.5
20260906080150 74 43 1.0 4.0 0.00 0.00 0.00 67 1022.5
20260906074652 73 69 2.0 6.0 0.00 0.00 0.00 69 1022.6
20260906073143 71 40 3.0 6.0 0.00 0.00 0.00 72 1022.6
20260906071655 70 53 3.0 6.0 0.00 0.00 0.00 75 1022.6
20260906070152 68 49 3.0 6.0 0.00 0.00 0.00 76 1022.7
20260906064653 67 12 3.0 9.0 0.00 0.00 0.00 78 1022.7
20260906063139 67 85 5.0 10.0 0.00 0.00 0.00 79 1022.6
20260906061652 66 43 5.0 9.0 0.00 0.00 0.00 80 1022.5
20260906060154 66 58 3.0 8.0 0.00 0.00 0.00 80 1022.3
20260906054651 66 65 4.0 7.0 0.00 0.00 0.00 81 1022.4
20260906053144 66 44 1.0 8.0 0.00 0.00 0.00 81 1022.2
20260906051652 66 66 3.0 6.0 0.00 0.00 0.00 81 1022.2
20260906050152 66 47 3.0 8.0 0.00 0.00 0.00 80 1022.0
20260906044654 66 24 3.0 6.0 0.00 0.00 0.00 79 1022.1
20260906043150 67 41 3.0 7.0 0.00 0.00 0.00 79 1022.1
20260906041655 67 33 1.0 4.0 0.00 0.00 0.00 80 1022.1
20260906040154 67 45 0.0 3.0 0.00 0.00 0.00 79 1022.1
20260906034655 67 35 2.0 5.0 0.00 0.00 0.00 79 1022.2
20260906033139 68 67 4.0 8.0 0.00 0.00 0.00 79 1022.3
20260906031653 68 29 4.0 8.0 0.00 0.00 0.00 78 1022.3
20260906030157 68 65 1.0 4.0 0.00 0.00 0.00 78 1022.3
20260906024654 68 31 1.0 5.0 0.00 0.00 0.00 77 1022.3
20260906023147 68 44 1.0 4.0 0.00 0.00 0.00 78 1022.3
20260906021655 68 20 0.0 3.0 0.00 0.00 0.00 78 1022.4
20260906020157 69 20 0.0 0.0 0.00 0.00 0.00 77 1022.4
20260906014653 69 20 0.0 4.0 0.00 0.00 0.00 76 1022.5
20260906013145 69 36 1.0 5.0 0.00 0.00 0.00 76 1022.4
20260906011652 70 360 1.0 4.0 0.00 0.00 0.00 76 1022.4
20260906010154 70 26 0.0 3.0 0.00 0.00 0.00 75 1022.4
20260906004652 70 26 1.0 3.0 0.00 0.00 0.00 75 1022.5
20260906003141 70 26 1.0 4.0 0.00 0.00 0.00 74 1022.5
20260906001650 71 26 0.0 2.0 0.00 0.00 0.00 72 1022.6
20260906000151 72 26 1.0 4.0 0.00 0.00 0.00 72 1022.7
20260905234654 72 26 1.0 4.0 0.00 0.00 0.00 72 1022.6
20260905231652 73 24 0.0 3.0 0.00 0.00 0.00 69 1022.7
20260905230151 74 36 0.0 4.0 0.00 0.00 0.00 69 1022.8
20260905224653 75 56 1.0 3.0 0.00 0.00 0.00 67 1022.7
20260905223147 75 56 0.0 4.0 0.00 0.00 0.00 66 1022.7
20260905221652 75 22 1.0 4.0 0.00 0.00 0.00 66 1022.5
20260905220156 76 13 2.0 5.0 0.00 0.00 0.00 66 1022.5
20260905214652 76 38 1.0 3.0 0.00 0.00 0.00 65 1022.6
20260905213139 77 38 2.0 4.0 0.00 0.00 0.00 65 1022.5
20260905211652 78 38 0.0 4.0 0.00 0.00 0.00 64 1022.4
20260905210153 78 38 1.0 4.0 0.00 0.00 0.00 64 1022.6
20260905204650 79 38 1.0 4.0 0.00 0.00 0.00 64 1022.5
20260905203144 82 67 1.0 3.0 0.00 0.00 0.00 62 1022.5
20260905201655 83 172 0.0 0.0 0.00 0.00 0.00 61 1022.5
20260905200155 83 173 0.0 1.0 0.00 0.00 0.00 60 1022.1
20260905194652 84 173 1.0 3.0 0.00 0.00 0.00 61 1022.1
20260905193140 85 173 0.0 1.0 0.00 0.00 0.00 58 1021.9
20260905191653 85 173 0.0 4.0 0.00 0.00 0.00 56 1021.7
20260905190156 86 191 1.0 7.0 0.00 0.00 0.00 54 1021.5
20260905184654 87 128 3.0 6.0 0.00 0.00 0.00 52 1021.4
20260905183143 87 98 0.0 10.0 0.00 0.00 0.00 51 1021.3
20260905181655 88 69 1.0 8.0 0.00 0.00 0.00 51 1021.2
20260905180155 88 97 2.0 13.0 0.00 0.00 0.00 50 1020.9
20260905174653 89 78 3.0 13.0 0.00 0.00 0.00 50 1020.9
20260905173142 90 92 4.0 15.0 0.00 0.00 0.00 50 1020.8
20260905171650 90 46 6.0 14.0 0.00 0.00 0.00 50 1020.8
20260905170151 91 117 4.0 16.0 0.00 0.00 0.00 49 1020.6
20260905164654 92 104 8.0 20.0 0.00 0.00 0.00 48 1020.4
20260905163142 92 121 9.0 18.0 0.00 0.00 0.00 47 1020.5
20260905161654 93 146 7.0 16.0 0.00 0.00 0.00 46 1020.5